| time (UTC) | temp C | wind direction | speed KPH | gust KPH | rain 1hr cm | rain 24hr cm | rain mn cm | humidity % | barometer mb |
| 20260906213039 | 29 | 119 | 11.3 | 20.9 | 0.00 | 0.00 | 0.00 | 38 | 979.5 |
| 20260906211536 | 30 | 117 | 4.8 | 20.9 | 0.00 | 0.00 | 0.00 | 40 | 979.7 |
| 20260906210041 | 30 | 126 | 9.7 | 19.3 | 0.00 | 0.00 | 0.00 | 39 | 979.9 |
| 20260906204533 | 30 | 138 | 11.3 | 22.5 | 0.00 | 0.00 | 0.00 | 40 | 980.0 |
| 20260906203031 | 30 | 131 | 4.8 | 17.7 | 0.00 | 0.00 | 0.00 | 40 | 980.0 |
| 20260906201531 | 30 | 360 | 11.3 | 24.1 | 0.00 | 0.00 | 0.00 | 38 | 980.0 |
| 20260906200027 | 29 | 360 | 11.3 | 19.3 | 0.00 | 0.00 | 0.00 | 39 | 980.2 |
| 20260906194525 | 29 | 126 | 6.4 | 17.7 | 0.00 | 0.00 | 0.00 | 40 | 980.4 |
| 20260906193022 | 28 | 130 | 4.8 | 17.7 | 0.00 | 0.00 | 0.00 | 43 | 980.7 |
| 20260906191520 | 28 | 113 | 3.2 | 9.7 | 0.00 | 0.00 | 0.00 | 41 | 980.9 |
| 20260906190015 | 28 | 83 | 6.4 | 12.9 | 0.00 | 0.00 | 0.00 | 43 | 981.0 |
| 20260906184522 | 28 | 128 | 12.9 | 20.9 | 0.00 | 0.00 | 0.00 | 42 | 981.3 |
| 20260906183013 | 28 | 119 | 6.4 | 14.5 | 0.00 | 0.00 | 0.00 | 40 | 981.6 |
| 20260906181517 | 28 | 115 | 0.0 | 9.7 | 0.00 | 0.00 | 0.00 | 41 | 981.9 |
| 20260906180006 | 28 | 45 | 3.2 | 11.3 | 0.00 | 0.00 | 0.00 | 42 | 982.0 |
| 20260906174504 | 27 | 132 | 4.8 | 12.9 | 0.00 | 0.00 | 0.00 | 43 | 982.1 |
| 20260906173002 | 27 | 294 | 1.6 | 8.0 | 0.00 | 0.00 | 0.00 | 45 | 982.3 |
| 20260906171600 | 27 | 255 | 3.2 | 8.0 | 0.00 | 0.00 | 0.00 | 46 | 982.5 |
| 20260906170100 | 26 | 194 | 3.2 | 11.3 | 0.00 | 0.00 | 0.00 | 48 | 982.6 |
| 20260906164554 | 26 | 360 | 1.6 | 6.4 | 0.00 | 0.00 | 0.00 | 50 | 982.6 |
| 20260906163054 | 25 | 269 | 1.6 | 8.0 | 0.00 | 0.00 | 0.00 | 51 | 982.7 |
| 20260906161548 | 25 | 262 | 0.0 | 6.4 | 0.00 | 0.00 | 0.00 | 53 | 982.9 |
| 20260906160045 | 24 | 263 | 1.6 | 6.4 | 0.00 | 0.00 | 0.00 | 53 | 983.1 |
| 20260906154540 | 23 | 294 | 1.6 | 8.0 | 0.00 | 0.00 | 0.00 | 56 | 983.1 |
| 20260906153040 | 22 | 264 | 3.2 | 8.0 | 0.00 | 0.00 | 0.00 | 59 | 983.1 |
| 20260906151533 | 21 | 298 | 1.6 | 6.4 | 0.00 | 0.00 | 0.00 | 61 | 983.1 |
| 20260906150033 | 20 | 360 | 3.2 | 8.0 | 0.00 | 0.00 | 0.00 | 62 | 983.3 |
| 20260906144528 | 19 | 273 | 3.2 | 6.4 | 0.00 | 0.00 | 0.00 | 63 | 983.4 |
| 20260906143029 | 18 | 236 | 1.6 | 6.4 | 0.00 | 0.00 | 0.00 | 65 | 983.2 |
| 20260906141526 | 17 | 226 | 0.0 | 4.8 | 0.00 | 0.00 | 0.00 | 66 | 983.2 |
| 20260906140039 | 16 | 360 | 0.0 | 3.2 | 0.00 | 0.00 | 0.00 | 71 | 983.0 |
| 20260906134525 | 15 | 226 | 0.0 | 3.2 | 0.00 | 0.00 | 0.00 | 78 | 982.9 |
| 20260906133022 | 13 | 360 | 0.0 | 3.2 | 0.00 | 0.00 | 0.00 | 81 | 982.8 |
| 20260906131526 | 13 | 360 | 0.0 | 0.0 | 0.00 | 0.00 | 0.00 | 82 | 982.5 |
| 20260906130020 | 13 | 360 | 0.0 | 1.6 | 0.00 | 0.00 | 0.00 | 83 | 982.4 |
| 20260906124519 | 12 | 360 | 0.0 | 3.2 | 0.00 | 0.00 | 0.00 | 83 | 982.3 |
| 20260906123018 | 12 | 174 | 0.0 | 0.0 | 0.00 | 0.00 | 0.00 | 82 | 982.5 |
| 20260906121515 | 13 | 174 | 0.0 | 0.0 | 0.00 | 0.00 | 0.00 | 82 | 982.1 |
| 20260906120019 | 13 | 174 | 0.0 | 0.0 | 0.00 | 0.00 | 0.00 | 81 | 982.0 |
| 20260906114521 | 13 | 174 | 0.0 | 0.0 | 0.00 | 0.00 | 0.00 | 81 | 982.0 |
| 20260906113009 | 13 | 174 | 0.0 | 0.0 | 0.00 | 0.00 | 0.00 | 80 | 982.0 |
| 20260906111508 | 13 | 174 | 0.0 | 0.0 | 0.00 | 0.00 | 0.00 | 80 | 981.9 |
| 20260906110005 | 13 | 174 | 0.0 | 0.0 | 0.00 | 0.00 | 0.00 | 79 | 982.0 |
| 20260906104503 | 14 | 173 | 0.0 | 0.0 | 0.00 | 0.00 | 0.00 | 78 | 981.9 |
| 20260906103100 | 14 | 173 | 0.0 | 0.0 | 0.00 | 0.00 | 0.00 | 79 | 981.9 |
| 20260906101600 | 15 | 173 | 0.0 | 0.0 | 0.00 | 0.00 | 0.00 | 77 | 981.7 |
| 20260906100056 | 15 | 173 | 0.0 | 0.0 | 0.00 | 0.00 | 0.00 | 76 | 981.5 |
| 20260906094606 | 15 | 173 | 0.0 | 0.0 | 0.00 | 0.00 | 0.00 | 75 | 981.5 |
| 20260906093100 | 15 | 173 | 0.0 | 0.0 | 0.00 | 0.00 | 0.00 | 73 | 981.6 |
| 20260906091547 | 16 | 173 | 0.0 | 0.0 | 0.00 | 0.00 | 0.00 | 72 | 981.5 |
| 20260906090108 | 17 | 173 | 0.0 | 0.0 | 0.00 | 0.00 | 0.00 | 70 | 981.6 |
| 20260906084541 | 17 | 173 | 0.0 | 0.0 | 0.00 | 0.00 | 0.00 | 68 | 981.4 |
| 20260906083041 | 17 | 173 | 0.0 | 0.0 | 0.00 | 0.00 | 0.00 | 68 | 981.4 |
| 20260906081535 | 18 | 173 | 0.0 | 0.0 | 0.00 | 0.00 | 0.00 | 67 | 981.3 |
| 20260906080032 | 18 | 174 | 0.0 | 1.6 | 0.00 | 0.00 | 0.00 | 66 | 981.2 |
| 20260906074536 | 18 | 173 | 0.0 | 0.0 | 0.00 | 0.00 | 0.00 | 64 | 981.3 |
| 20260906073026 | 19 | 173 | 0.0 | 3.2 | 0.00 | 0.00 | 0.00 | 63 | 981.3 |
| 20260906071525 | 20 | 173 | 0.0 | 0.0 | 0.00 | 0.00 | 0.00 | 62 | 981.5 |
| 20260906070023 | 20 | 173 | 0.0 | 3.2 | 0.00 | 0.00 | 0.00 | 61 | 981.4 |
| 20260906064521 | 20 | 246 | 1.6 | 4.8 | 0.00 | 0.00 | 0.00 | 61 | 981.2 |
| 20260906063020 | 20 | 247 | 0.0 | 4.8 | 0.00 | 0.00 | 0.00 | 62 | 981.1 |
| 20260906061519 | 20 | 248 | 0.0 | 3.2 | 0.00 | 0.00 | 0.00 | 63 | 981.1 |
| 20260906060014 | 20 | 248 | 0.0 | 0.0 | 0.00 | 0.00 | 0.00 | 65 | 981.0 |
| 20260906054514 | 20 | 248 | 0.0 | 1.6 | 0.00 | 0.00 | 0.00 | 66 | 981.0 |
| 20260906053019 | 20 | 248 | 1.6 | 4.8 | 0.00 | 0.00 | 0.00 | 66 | 981.0 |
| 20260906051513 | 20 | 247 | 0.0 | 4.8 | 0.00 | 0.00 | 0.00 | 65 | 980.8 |
| 20260906050012 | 20 | 248 | 0.0 | 1.6 | 0.00 | 0.00 | 0.00 | 64 | 980.9 |
| 20260906044512 | 21 | 228 | 0.0 | 4.8 | 0.00 | 0.00 | 0.00 | 63 | 981.0 |
| 20260906043015 | 22 | 227 | 0.0 | 4.8 | 0.00 | 0.00 | 0.00 | 62 | 980.8 |
| 20260906041512 | 22 | 196 | 1.6 | 4.8 | 0.00 | 0.00 | 0.00 | 62 | 980.9 |
| 20260906040010 | 22 | 192 | 3.2 | 14.5 | 0.00 | 0.00 | 0.00 | 61 | 980.6 |
| 20260906034513 | 22 | 102 | 1.6 | 12.9 | 0.00 | 0.00 | 0.00 | 60 | 980.8 |
| 20260906033010 | 23 | 198 | 4.8 | 11.3 | 0.00 | 0.00 | 0.00 | 58 | 980.7 |
| 20260906031509 | 23 | 123 | 3.2 | 14.5 | 0.00 | 0.00 | 0.00 | 57 | 980.5 |
| 20260906030008 | 23 | 233 | 4.8 | 14.5 | 0.00 | 0.00 | 0.00 | 55 | 980.3 |
| 20260906024507 | 24 | 194 | 4.8 | 20.9 | 0.00 | 0.00 | 0.00 | 54 | 980.1 |
| 20260906023007 | 25 | 360 | 9.7 | 25.7 | 0.00 | 0.00 | 0.00 | 53 | 979.9 |
| 20260906021506 | 25 | 360 | 11.3 | 24.1 | 0.00 | 0.00 | 0.00 | 50 | 979.9 |
| 20260906020005 | 25 | 360 | 8.0 | 16.1 | 0.00 | 0.00 | 0.00 | 44 | 979.8 |
| 20260906014510 | 25 | 122 | 4.8 | 14.5 | 0.00 | 0.00 | 0.00 | 43 | 979.7 |
| 20260906013004 | 25 | 360 | 8.0 | 16.1 | 0.00 | 0.00 | 0.00 | 42 | 979.5 |
| 20260906011503 | 26 | 115 | 4.8 | 12.9 | 0.00 | 0.00 | 0.00 | 41 | 979.5 |
| 20260906010005 | 27 | 110 | 4.8 | 19.3 | 0.00 | 0.00 | 0.00 | 39 | 979.5 |
| 20260906004502 | 28 | 132 | 11.3 | 19.3 | 0.00 | 0.00 | 0.00 | 35 | 979.6 |
| 20260906003002 | 29 | 196 | 0.0 | 4.8 | 0.00 | 0.00 | 0.00 | 29 | 979.2 |
| 20260906001501 | 30 | 360 | 0.0 | 4.8 | 0.00 | 0.00 | 0.00 | 29 | 979.2 |
| 20260906000101 | 30 | 360 | 0.0 | 4.8 | 0.00 | 0.00 | 0.00 | 29 | 979.2 |
| 20260905234603 | 31 | 101 | 3.2 | 6.4 | 0.00 | 0.00 | 0.00 | 27 | 979.1 |
| 20260905233102 | 31 | 141 | 1.6 | 6.4 | 0.00 | 0.00 | 0.00 | 27 | 979.0 |
| 20260905231601 | 30 | 159 | 1.6 | 8.0 | 0.00 | 0.00 | 0.00 | 29 | 978.9 |
| 20260905230108 | 30 | 360 | 3.2 | 6.4 | 0.00 | 0.00 | 0.00 | 29 | 979.1 |
| 20260905224559 | 30 | 117 | 1.6 | 12.9 | 0.00 | 0.00 | 0.00 | 29 | 978.9 |
| 20260905223058 | 31 | 360 | 6.4 | 11.3 | 0.00 | 0.00 | 0.00 | 27 | 978.9 |
| 20260905221557 | 31 | 159 | 0.0 | 8.0 | 0.00 | 0.00 | 0.00 | 28 | 978.8 |
| 20260905220055 | 32 | 127 | 6.4 | 12.9 | 0.00 | 0.00 | 0.00 | 26 | 978.9 |
| 20260905214553 | 32 | 126 | 3.2 | 8.0 | 0.00 | 0.00 | 0.00 | 26 | 979.1 |